Regional Weather Roundup
Issued by NWS Upton, NY

Current Version | Previous Version | Text Only | Print | Product List | Glossary Off
Versions: 1 2 3 4 5 6 7 8 9 10 11 12 13 14 15 16 17 18 19 20 21 22 23 24 25 26 27 28 29 30 31 32 33 34 35 36 37 38 39 40 41 42 43 44 45 46 47 48 49 50
155 ASUS41 KOKX 231108 RWROKX REGIONAL WEATHER ROUNDUP NATIONAL WEATHER SERVICE NEW YORK NY 700 AM EDT WED AUG 23 2017 NOTE: "FAIR" INDICATES FEW OR NO CLOUDS BELOW 12,000 FEET WITH NO SIGNIFICANT WEATHER AND/OR OBSTRUCTIONS TO VISIBILITY. NYZ071-072-176-178-NJZ106-104-231200- NEW YORK CITY METRO AREA CITY SKY/WX TMP DP RH WIND PRES REMARKS Central Park CLOUDY 73 71 93 MISG 29.80R Bronx Bot Gard N/A 73 68 83 W7 29.78F LaGuardia APRT MOCLDY 76 71 85 W9 29.77R Kennedy INTL CLOUDY 75 74 96 W9 29.78R Breezy Point N/A 72 N/A N/A W6 N/A Newark/Liberty CLOUDY 74 72 93 W8 29.78R Teterboro CLOUDY 74 71 91 W5 29.77R $$ NYZ177-179-078>081-231200- LONG ISLAND NEW YORK CITY SKY/WX TMP DP RH WIND PRES REMARKS Jones Beach N/A 73 N/A N/A W5 N/A Matinecock PT N/A 73 N/A N/A W9 N/A Farmingdale CLOUDY 73 72 96 W6 29.77R MacArthur/ISP MOCLDY 73 73 100 W7 29.76R Shirley CLOUDY 74 73 97 W6 29.77R Mt Sinai Harb N/A N/A N/A N/A W6G12 N/A Westhampton LGT RAIN 73 70 90 W7 29.77S East Hampton FAIR 72 71 96 W7 29.75S Montauk N/A 72 71 97 SW3 29.76S $$ NYZ052-065-067-231200- HUDSON VALLEY CITY SKY/WX TMP DP RH WIND PRES REMARKS White Plains CLOUDY 73 69 87 W8 29.78R Larchmont Harb N/A 73 N/A N/A W7 N/A Croton On Huds N/A 73 N/A N/A W9 N/A Newburgh PTCLDY 68 66 94 W12 29.80R Montgomery MOCLDY 68 63 84 W6 29.80R Poughkeepsie PTCLDY 70 68 93 E5 29.77R Albany MOCLDY 65 55 70 W9 29.81R $$ NJZ001-105-106-008-010-013-015-019>022-104-231200- NEW JERSEY CITY SKY/WX TMP DP RH WIND PRES REMARKS Newark/Liberty CLOUDY 74 72 93 W8 29.78R Teterboro CLOUDY 74 71 91 W5 29.77R Caldwell CLOUDY 72 72 100 CALM 29.79R Somerville CLOUDY 72 72 100 CALM 29.78R FOG Linden PTSUNNY 73 71 92 W5 29.79R Perth Amboy N/A 73 N/A N/A W7 N/A Sussex CLOUDY 69 62 78 VRB6 29.82R Andover N/A 68 61 78 N6 29.83R Trenton CLOUDY 74 72 93 W5 29.80R Millville MOCLDY 75 74 96 W5 29.81R Atlantic City PTCLDY 75 72 90 SW6 29.81R Wrightstown CLOUDY 73 72 97 W3 29.78R Toms River PTCLDY 72 71 97 CALM 29.80R Belmar PTCLDY 73 72 96 W5 29.80R FOG $$ PAZ047>061-062-071-231200- EASTERN PENNSYLVANIA CITY SKY/WX TMP DP RH WIND PRES REMARKS Philadelphia CLOUDY 75 71 87 W6 29.81R Allentown CLOUDY 71 66 84 N9 29.83R Scranton PTCLDY 65 54 67 NW3 29.88R $$ CTZ002-004>006-009-010-012-RIZ004-006-007-MAZ004-011-015-231200- SOUTHERN NEW ENGLAND IN CT CITY SKY/WX TMP DP RH WIND PRES REMARKS Bradley INTL CLOUDY 72 70 93 NW7 29.75R Hartford CLOUDY 74 70 87 VRB6 29.73S Danbury PTCLDY 72 69 90 W7 29.79R Wtrbury/Oxford MOCLDY 70 69 97 VRB3 29.78S Norwalk Harbor N/A 73 N/A N/A SW12 N/A Bridgeport CLOUDY 74 71 91 W6 29.75R Meriden MOCLDY 71 69 93 CALM 29.75R New Haven MOCLDY 74 71 91 SW5 29.76R Chester FAIR 72 72 100 W5 29.76R Groton LGT RAIN 74 71 91 W8 29.74R Wilimantic CLOUDY 73 70 90 W3 29.74R IN RI CITY SKY/WX TMP DP RH WIND PRES REMARKS Providence CLOUDY 74 72 93 SW6 29.74R Block Island CLOUDY 69 68 96 SW13 29.76S Westerly CLOUDY 74 72 93 SW6 29.75S IN MA CITY SKY/WX TMP DP RH WIND PRES REMARKS Boston CLOUDY 74 71 91 SW12 29.71R Worcester CLOUDY 70 67 90 W9 29.76R Westfield MOCLDY 70 66 87 CALM 29.75S Provincetown CLOUDY 72 71 97 SW16 29.73S Nantucket CLOUDY 72 72 100 SW16 29.77S FOG $$ ANZ330-335-338-340-345-350-353-355-231200- COASTAL MARINE OBSERVATIONS STATION/POSITION TIME SKY/WX TEMP WIND PRES VSBY WAVE AIR SEA DIR/SP/G HT/PER (UTC) (F) (DEG/KT/KT) (MB) (MI) (FT/S) NY HARB ENTRANCE 0950 74 75 260/ 12/ 14 1007.3 4/ 7 GREAT SOUTH BAY 1015 75 78 270/ 12/ 16 N/A 23 SSW MONTAUK P 0950 72 71 1007.6 6/ 7 15 E BARNEGAT LI 1030 76 N/A 4/ 6 HUDSON CANYON 0950 76 76 250/ 10/ 12 1008.5 6/ 7 KINGS POINT 1030 75 75 300/ 9/ 11 1007.9 EXECUTION ROCKS NOT AVBL WESTERN LI SOUND NOT AVBL CENTRAL LI SOUND NOT AVBL EASTERN LI SOUND NOT AVBL ROBBINS REEF 1030 270/ 11/ 13 1008.9 $$ >>>>>>>>>>>>>>>>>>>>>>>>>>>> KEY <<<<<<<<<<<<<<<<<<<<<<<<<<< > < > SKY/WX - Sky Condition/Present Weather < > TMP - Temperature in Fahrenheit < > DP - Dew Point in Fahrenheit < > RH - Relative Humidity in Percent < > WIND - Direction (from) and Speed in MPH < > PRES - Mean Sea Level Pressure (inches of Hg) < > WCI - Wind Chill Index < > VSB - VISIBILITY IN MILES < > HX - HEAT INDEX < > TC - TEMPERATURE IN CELSIUS < > VRB - VARIABLE WIND DIRECTION < > < >>>>>>>>>>>>>>>>>>>>>>>>>>>> KEY <<<<<<<<<<<<<<<<<<<<<<<<<<<

USA.gov is the U.S. government's official web portal to all federal, state and local government web resources and services.